Regional Weather Roundup
Issued by NWS

Home | Current Version | Previous Version | Graphics & Text | Print | Product List | Glossary On
Versions: 1 2 3 4 5 6 7 8 9 10 11 12 13 14 15 16 17 18 19 20 21 22 23 24 25 26 27 28 29 30 31 32 33 34 35 36 37 38 39 40 41 42 43 44 45 46 47 48 49 50
000
ASUS43 KFSD 242102
RWRSD

WEATHER ROUNDUP FOR SOUTH DAKOTA
NATIONAL WEATHER SERVICE SIOUX FALLS SD
300 PM CST FRI NOV 24 2017

NOTE: "FAIR" INDICATES FEW OR NO CLOUDS BELOW 12,000 FEET WITH NO
SIGNIFICANT WEATHER AND/OR OBSTRUCTIONS TO VISIBILITY.


SDZ001>005-009-010-012>017-242200-
NORTHWEST AND NORTH CENTRAL SOUTH DAKOTA

CITY           SKY/WX    TMP DP  RH WIND       PRES   REMARKS
BUFFALO          N/A     50  33  52 NW26      29.75S
FAITH            N/A     53  33  46 NW22G30   29.78R
MOBRIDGE       PTSUNNY   57  37  47 NW17G31   29.69R
$$

SDZ012>016-024>037-041>051-057-063-072>074-242200-
SOUTHWEST AND SOUTH CENTRAL SOUTH DAKOTA

CITY           SKY/WX    TMP DP  RH WIND       PRES   REMARKS
RAPID CTY ARPT SUNNY     54  24  31 NW25G32   29.86R
PIERRE         SUNNY     57  37  47 NW17      29.74R
CUSTER         SUNNY     44  19  36 NW8       29.88R
ELLSWORTH AFB  SUNNY     54  24  32 NW28G35   29.84R
PHILIP         SUNNY     56  33  42 NW16G26   29.82R
PINE RIDGE     CLOUDY    54  26  34 N10       29.87R
SPEARFISH      FAIR      48  25  40 NW18G31   29.87R
WINNER         FAIR      59  35  40 NW30G40   29.77R
$$

SDZ004>011-016>023-039-040-242200-
NORTHEAST SOUTH DAKOTA

CITY           SKY/WX    TMP DP  RH WIND       PRES   REMARKS
ABERDEEN       SUNNY     54  35  48 NW23G29   29.68R
WATERTOWN      SUNNY     50  38  63 NW17G26   29.63R
BROOKINGS      MOSUNNY   51  39  63 NW25G37   29.62R
SISSETON         N/A     53  36  52 NW24G32   29.57R
$$

SDZ017-020-022-023-036>040-048>070-242200-
SOUTHEAST SOUTH DAKOTA

CITY           SKY/WX    TMP DP  RH WIND       PRES   REMARKS
SIOUX FALLS    MOSUNNY   58  42  55 NW32G47   29.60R
HURON          SUNNY     56  32  40 N25G37    29.69R
CHAMBERLAIN    MOSUNNY   58  38  47 NW23G30   29.75R
MITCHELL       SUNNY     57  35  43 NW25G38   29.70R
YANKTON        MOSUNNY   60  38  43 NW36      29.65R
$$

ABBREVIATIONS USED IN REMARKS
   TC - TEMPERATURE IN CELSIUS
  WCI - WIND CHILL INDEX
   HX - HEAT INDEX
  VSB - VISIBILITY




USA.gov is the U.S. government's official web portal to all federal, state and local government web resources and services.